カタログに戻る

SL-8 R/B

運用中PO
NORAD 10461·ROCKET BODY·🇷🇺 Russia

打ち上げ Oct 28, 1977 から Plesetsk Cosmodrome

Loading…

次のパス (今後24時間)

TLE

最新Source: Space-Track

元期: Sep 14, 2026, 07:54 UTC

1 10461U 77107B   26257.32970433  .00000094  00000-0  79115-4 0  9997
2 10461  82.9510  26.5329 0034367  59.6671 329.7196 13.77156011455107

AllMySatでSL-8 R/Bをリアルタイム追跡

Download on the App Store